Wind_Speed
12 18 17 16 15 17 14 15 12 14 14 14 13 11 10 10 10 12 13 13 13 12 12 11 9 7 5 3 1 4 7 4 0 6 11 10 6 6 9 10 12 11 11
13 16 17 18 18 17 14 15 15 15 16 13 13 11 12 13 12 13 12 12 12 11 12 8 8 8 7 2 3 5 9 2 3 5 12 1 8 11 7 8 9 11 11
16 13 16 18 17 16 16 16 14 14 15 13 13 11 12 9 14 15 13 13 14 12 9 7 4 6 4 8 4 5 8 9 2 3 4 2 1 10 8 7 8 8 11
19 15 16 15 16 13 16 15 15 16 15 14 15 13 15 16 16 20 16 16 15 13 13 10 9 8 8 1 4 6 5 5 1 2 1 2 3 4 3 17 15 11 12
9 12 15 13 10 12 16 16 16 17 16 16 15 15 14 16 19 19 20 14 16 14 14 14 12 9 8 7 7 1 4 3 6 2 2 2 5 7 6 4 12 13 16
13 13 13 13 12 18 15 16 17 18 17 17 16 17 16 14 18 19 19 17 18 17 16 16 14 12 10 5 6 5 6 6 4 7 3 8 2 4 6 4 2 4 15
15 14 13 13 17 16 16 16 17 17 17 17 17 16 16 15 14 15 16 20 18 16 19 16 15 14 12 10 8 7 6 6 6 6 9 3 8 2 6 4 1 8 23
12 16 14 16 15 16 17 19 20 19 19 18 18 18 18 19 17 17 17 19 16 16 21 17 16 14 12 12 10 10 10 11 9 7 8 10 5 5 5 3 8 4 4
7 9 12 14 16 17 18 19 20 20 20 19 19 19 20 21 20 17 16 17 15 11 17 15 16 14 14 13 12 11 10 6 8 9 8 9 6 4 6 6 4 3 5
9 11 6 15 16 18 18 19 21 22 21 20 20 21 23 23 19 16 18 18 16 15 16 16 16 16 14 15 14 14 13 11 11 11 8 9 8 5 6 6 12 5 11
9 7 6 11 12 15 17 19 20 22 21 22 22 22 23 25 22 21 19 18 14 15 10 13 17 18 15 16 16 16 10 12 11 12 9 9 8 10 6 8 9 8 10
11 12 11 9 4 6 13 17 19 21 22 21 22 23 23 24 25 24 22 21 21 17 16 17 18 17 18 18 17 17 15 14 13 14 13 12 12 12 10 9 8 8 6
12 12 12 12 13 7 6 12 15 17 20 21 22 22 24 25 26 27 25 24 24 22 20 19 19 18 18 19 17 16 14 15 14 15 15 14 13 11 11 14 9 10 11
11 12 12 12 13 10 12 8 12 14 18 21 23 24 25 25 26 26 27 27 26 24 24 22 21 20 19 19 19 17 16 14 17 15 16 15 15 14 13 14 13 11 11
11 11 11 10 11 11 13 16 12 13 16 20 23 25 25 24 25 25 25 28 27 27 25 24 22 21 19 19 19 17 17 17 17 18 16 17 17 16 16 16 16 15 15
10 10 10 10 12 11 11 9 12 12 15 17 22 23 23 24 24 24 24 26 28 28 28 26 26 24 24 23 22 21 18 17 19 18 19 19 17 16 21 22 24 18 11
9 10 11 11 11 13 13 11 11 13 15 17 21 23 24 26 25 25 25 26 27 27 28 28 27 26 25 23 18 20 22 21 20 20 18 19 22 25 21 19 21 22 22
13 13 14 13 15 16 17 15 14 13 15 17 19 21 25 25 26 25 26 26 26 28 28 29 28 27 28 28 28 26 22 23 23 23 22 24 21 20 17 18 15 17 18
15 16 17 18 18 19 20 19 19 17 16 15 17 18 25 27 25 25 26 26 26 26 28 28 29 30 30 30 30 29 24 23 25 25 25 23 22 24 24 19 19 19 22
21 20 21 21 20 20 21 22 21 20 19 14 17 7 37 25 26 25 26 26 26 26 27 28 29 30 29 29 29 29 25 23 22 24 27 27 27 24 26 25 22 20 22
23 23 22 22 21 21 21 24 23 23 21 17 13 12 14 11 21 24 27 27 26 27 28 28 28 29 30 27 29 30 27 25 23 24 23 22 18 26 28 29 26 24 22
24 24 23 23 23 22 22 23 24 25 23 18 15 13 13 16 18 12 12 19 25 27 26 27 26 27 27 28 28 28 30 27 24 20 18 17 21 23 24 26 26 25 25
27 27 23 18 18 25 27 24 22 24 24 22 18 16 18 22 9 30 38 26 28 31 28 28 27 26 25 26 31 29 30 31 28 23 18 15 15 18 23 21 22 23 18
27 29 25 23 23 23 24 27 24 23 26 25 21 17 17 19 22 29 30 22 37 32 32 27 27 27 26 26 25 33 31 29 31 23 18 17 16 16 14 15 16 16 16
28 28 26 26 27 28 25 28 24 25 24 26 25 22 20 19 18 23 32 29 34 43 44 30 29 27 24 24 27 27 21 24 26 23 17 14 14 16 15 16 15 14 15
28 27 28 29 29 27 27 25 28 26 23 25 27 26 24 22 22 23 20 26 29 36 26 17 14 9 15 18 17 27 24 23 24 23 20 17 17 17 17 16 16 16 18
Wind_Direction
175 169 182 172 178 176 183 194 191 192 196 195 187 182 186 179 175 182 181 183 195 190 206 219 180 225 251 347 61 256 249 275 319 226 191 159 169 184 173 175 172 167 175
160 177 187 178 192 182 192 201 190 197 200 196 197 187 186 182 180 181 177 175 186 186 204 241 175 188 202 186 270 287 290 119 1 310 187 150 176 193 176 197 187 170 182
169 189 193 197 191 178 194 202 199 196 205 195 188 187 183 177 181 179 182 188 186 188 201 211 212 190 236 197 201 258 297 287 142 347 313 344 71 159 171 182 204 191 191
180 172 205 199 194 187 193 201 190 195 202 188 188 191 188 172 190 192 183 185 189 192 192 195 200 207 223 243 219 239 256 274 185 192 124 9 326 75 261 178 192 194 211
209 167 222 171 205 189 195 195 194 193 195 195 194 189 206 185 191 197 177 180 185 199 203 191 197 204 216 206 246 174 257 250 300 269 140 203 208 211 235 334 183 197 204
210 170 202 164 190 194 199 190 191 193 197 195 199 200 207 220 188 195 173 193 186 196 199 196 198 206 217 197 211 214 233 276 324 312 273 273 191 39 283 198 316 104 253
206 179 187 195 190 191 192 193 191 198 198 194 202 202 206 219 196 197 193 193 203 188 183 200 201 210 215 214 214 217 240 230 252 263 287 237 277 235 177 136 348 65 263
194 193 198 197 198 186 198 195 190 197 198 200 203 200 204 205 210 197 209 218 203 197 179 191 206 216 211 216 219 225 226 223 219 233 266 297 263 239 256 231 153 274 236
182 208 197 205 199 198 203 202 195 199 198 200 199 200 199 206 210 203 216 233 221 221 164 186 210 213 216 214 219 231 212 229 224 212 229 244 251 288 289 292 233 224 279
11 344 281 207 211 209 199 206 199 202 201 201 201 200 198 203 210 211 208 227 218 229 205 186 206 214 212 220 216 234 208 221 229 237 198 246 252 249 238 256 276 223 282
28 3 321 289 216 213 210 198 203 206 204 203 201 202 204 202 206 208 210 221 225 220 234 202 214 212 214 215 220 230 248 218 230 259 198 224 255 255 242 231 260 280 276
30 22 11 353 293 254 228 207 202 213 209 206 206 205 205 206 205 212 207 209 219 218 209 222 222 226 226 222 215 221 228 233 227 236 238 233 234 224 254 250 260 264 277
36 25 29 21 357 326 265 255 208 219 218 213 211 211 209 209 212 207 214 207 208 215 220 220 222 226 225 222 227 228 238 248 236 235 232 236 233 232 235 235 229 225 230
37 33 29 25 13 3 337 298 256 226 224 222 216 215 216 215 215 216 207 211 209 214 217 223 221 225 228 230 229 235 231 238 246 237 244 241 240 234 240 238 237 246 258
27 27 20 14 15 14 359 348 308 271 232 232 225 218 218 220 219 216 213 210 207 211 216 218 225 223 226 228 233 232 238 231 238 251 235 241 243 245 239 246 234 242 235
14 7 2 3 1 353 349 337 331 317 275 238 239 229 219 220 220 218 214 211 214 212 212 218 219 219 225 225 222 227 237 239 240 244 246 248 255 247 249 251 259 262 266
353 343 333 335 340 331 329 329 318 302 302 268 250 240 227 219 219 218 216 216 213 215 214 212 216 221 227 231 227 227 235 248 256 237 239 251 251 243 231 244 248 251 249
332 322 313 313 312 318 315 313 310 298 287 298 258 248 244 228 216 216 216 217 216 216 218 217 215 218 225 229 235 238 238 242 249 255 246 240 254 269 242 241 246 245 250
316 310 313 309 305 297 295 296 298 293 287 281 280 247 239 241 222 216 215 215 217 220 220 220 219 218 225 230 234 236 237 241 241 244 250 249 246 248 255 253 250 255 255
313 312 306 302 299 297 291 284 284 286 285 283 277 277 248 227 227 217 217 217 218 221 223 223 223 223 224 225 228 230 229 233 237 238 243 248 249 251 248 246 240 249 255
306 307 304 298 297 295 291 283 277 276 280 281 276 274 269 248 245 226 220 221 216 222 219 225 220 221 223 223 226 221 216 225 230 236 232 237 249 245 251 250 242 244 255
300 299 297 295 296 291 285 281 274 276 278 279 279 251 258 244 248 258 244 247 233 222 221 224 226 225 225 224 224 225 220 219 230 243 249 253 253 253 253 245 245 246 253
300 299 301 296 287 290 294 281 277 275 275 273 274 275 269 274 314 276 254 272 286 235 217 217 222 223 217 220 221 223 220 220 216 231 242 245 247 250 251 241 244 249 250
300 302 303 294 290 283 279 283 279 270 269 271 266 265 258 251 225 238 239 235 262 242 229 217 221 221 220 214 207 217 217 217 216 225 233 236 231 232 229 243 246 241 234
300 295 292 289 288 286 281 279 271 265 261 260 260 257 252 252 245 233 227 217 244 279 246 224 225 220 218 216 202 198 197 205 207 203 206 210 222 225 227 231 237 236 229
297 295 291 286 282 281 280 279 273 264 261 259 255 251 252 244 232 233 249 242 227 261 261 259 253 251 218 228 220 201 187 197 198 195 197 213 223 225 226 222 217 226 228
Height
759 764 768 774 779 786 791 795 800 804 807 809 812 813 815 819 821 823 826 828 831 834 836 833 835 837 835 835 836 836 833 833 832 830 830 832 835 836 836 837 838 842 844
759 761 766 771 775 781 789 793 798 802 804 807 809 811 814 816 820 823 825 827 831 833 834 833 833 835 835 837 838 837 833 831 833 829 831 831 833 833 834 837 836 839 841
754 758 763 766 770 776 786 791 796 800 803 805 808 810 813 816 818 821 824 827 829 831 833 833 834 835 835 835 838 838 835 832 833 834 833 831 838 828 832 834 835 836 836
746 752 756 761 766 774 783 788 794 798 801 804 806 807 809 813 814 817 820 823 827 829 831 833 835 836 835 834 837 837 837 835 831 832 833 834 833 832 835 828 829 832 833
743 753 754 758 766 774 779 785 791 795 798 801 804 806 808 809 813 814 817 820 824 827 829 832 833 835 835 835 836 836 836 836 833 830 831 832 831 829 824 828 822 827 828
747 751 755 759 768 772 776 781 787 793 796 799 802 805 807 808 810 812 816 820 821 824 827 829 831 833 834 834 835 836 837 836 835 833 833 829 828 828 823 824 829 829 830
747 747 757 760 764 768 774 779 785 789 793 796 799 802 805 807 808 810 811 813 815 817 822 826 829 831 832 833 834 835 835 835 835 835 832 830 828 825 825 829 833 827 833
739 744 750 754 760 766 772 775 781 785 789 793 796 800 803 805 806 809 810 811 811 813 817 823 825 828 829 831 832 833 833 832 834 834 833 830 826 824 822 827 833 832 827
734 739 743 749 756 762 768 772 777 782 785 788 792 796 800 802 804 806 809 809 810 810 813 819 822 824 826 828 829 830 830 832 832 832 832 832 828 825 824 823 824 828 828
748 743 739 743 750 757 763 769 774 777 781 784 788 792 795 799 801 804 806 807 809 810 809 814 819 821 824 825 826 826 827 830 830 829 829 831 828 827 826 825 822 821 819
755 753 749 744 744 751 755 763 770 773 777 780 783 787 791 794 798 800 803 805 808 808 810 813 816 817 819 821 823 824 825 828 828 827 828 829 830 828 825 825 825 824 824
759 756 754 749 749 750 753 756 764 769 773 776 779 782 786 789 793 796 798 802 805 807 809 812 815 816 817 818 819 821 822 823 824 825 826 826 826 827 827 826 825 824 823
764 762 761 761 759 756 757 758 760 765 768 772 775 778 781 784 785 789 793 796 800 803 805 808 811 812 814 814 817 819 819 820 820 821 823 823 824 824 824 824 823 824 824
767 767 766 767 767 765 763 761 761 762 765 766 769 773 775 777 780 783 786 789 794 797 799 802 805 807 810 811 812 814 815 817 817 818 819 820 821 821 822 822 820 821 821
770 770 770 770 769 770 769 765 763 761 763 763 764 766 769 772 774 777 780 784 786 791 794 797 799 802 804 806 807 809 811 812 813 814 814 816 817 817 818 819 817 817 818
774 773 771 771 770 769 768 767 765 763 761 760 760 761 763 766 768 771 774 777 781 783 787 790 793 796 797 798 801 805 805 806 808 810 810 811 812 813 814 815 815 816 816
774 774 773 770 770 769 766 764 764 762 759 757 756 756 757 758 761 765 769 772 775 779 780 782 786 789 791 792 795 798 800 802 803 803 805 806 804 804 807 809 810 811 812
772 771 769 769 769 767 765 763 760 758 757 755 753 754 756 754 753 757 761 766 770 772 775 777 778 781 783 786 789 792 795 796 797 798 799 800 800 801 802 804 806 807 807
769 768 767 767 767 766 763 760 757 754 752 751 748 748 750 753 749 749 752 757 762 765 767 770 773 773 775 778 781 786 789 790 791 792 793 793 794 796 798 801 802 802 801
765 765 764 763 762 761 760 756 752 749 747 745 743 732 743 741 745 741 744 748 753 757 761 763 764 766 767 769 773 777 781 782 784 785 787 788 789 791 792 793 796 797 796
763 761 760 758 756 756 754 752 748 744 741 742 741 742 728 732 739 735 736 739 743 747 751 754 756 758 759 761 762 767 771 774 775 777 777 781 782 784 786 787 789 791 791
756 756 753 752 750 750 748 746 744 742 737 735 735 736 733 729 725 727 732 736 740 739 741 746 747 748 750 753 755 757 761 765 768 770 772 774 777 779 780 781 783 785 786
751 749 747 747 747 746 743 738 738 737 734 730 728 724 721 715 700 720 732 728 736 736 732 732 736 737 739 742 745 748 751 756 761 765 767 769 772 774 776 776 776 778 780
750 747 744 742 740 740 738 735 732 731 730 727 723 721 717 714 717 720 712 704 720 732 726 721 723 726 727 729 733 738 743 748 754 758 762 764 766 769 772 773 773 773 775
746 743 739 737 734 731 730 729 725 725 722 721 719 717 714 713 713 714 720 722 718 714 726 712 713 712 713 716 721 727 735 741 745 752 757 760 763 764 766 768 769 770 769
742 739 735 731 727 725 722 721 719 717 716 714 712 709 706 705 706 709 708 704 711 689 706 704 707 708 707 710 717 719 727 735 742 747 750 754 756 757 759 762 764 765 766